Tracking 33744 objects as of 12-Apr-2026
HD Live streaming from Space Station
objects crossing your sky now

GORIZONT 32

Track GORIZONT 32 now!
GORIZONT 32 is classified as:


NORAD ID: 23880
Int'l Code: 1996-034A
Perigee: 35,768.5 km
Apogee: 35,846.2 km
Inclination: 14.4 °
Period: 1,436.8 minutes
Semi major axis: 42178 km
RCS: 17.7827 m2 (large)
Launch date: May 25, 1996
Source: Commonwealth of Independent States (former USSR) (CIS)
Launch site: TYURATAM MISSILE AND SPACE COMPLEX (TTMTR)

Telecommunications; augment television channels available to the people of Siberia.
Your satellite tracking list
Your tracking list is empty




NASA's NSSDC Master Catalog

Two Line Element Set (TLE):
1 23880U 96034A   26101.48124847 -.00000132  00000-0  00000-0 0  9998
2 23880  14.3913 355.4940 0009212 356.1388 182.0113  1.00223408109367
Source of the keplerian elements: AFSPC